GFSSE_sfc_dewp_000.txt.gz
Dewpoint
63 66 70 71 71 72 72 71 72 72 72 72 71 71 70 69 68 68 66 66 66 67 66 65 65 67 67 68 67 68 69 70 69 70 71 69 67 68 68 70 69 69 72
62 65 68 70 71 71 72 71 72 72 72 72 71 71 70 69 67 67 67 67 65 65 64 64 66 67 68 68 68 68 68 68 69 69 70 70 69 69 69 70 69 69 71
61 64 66 68 70 70 71 71 71 72 72 72 71 70 70 69 68 67 67 65 62 63 62 63 67 66 68 67 65 66 67 68 67 68 70 67 66 69 69 68 68 71 71
62 65 67 68 69 70 70 70 70 70 70 71 70 70 70 68 68 67 65 63 61 60 63 65 65 63 66 63 62 61 66 68 68 68 68 68 66 68 69 67 68 70 70
64 66 66 67 68 70 70 70 70 70 70 71 70 70 69 68 68 66 63 64 62 62 63 65 66 64 64 63 62 61 65 66 67 67 66 66 65 67 69 67 70 69 69
64 65 66 67 68 69 70 69 69 69 69 70 70 69 68 68 66 66 64 63 63 64 64 65 64 66 64 63 64 65 66 66 66 65 66 66 65 67 68 69 68 69 69
64 66 66 67 67 68 67 68 68 69 69 69 69 69 68 67 65 63 63 64 65 64 65 65 67 65 65 65 65 65 66 65 66 66 66 64 61 69 68 68 68 69 68
65 66 66 67 66 66 66 66 66 67 68 68 68 68 68 67 66 66 66 66 64 63 62 63 63 64 62 63 63 64 63 64 66 66 66 64 64 68 69 68 68 67 68
65 65 65 65 65 65 64 64 64 66 67 68 67 66 66 66 66 65 64 64 64 64 65 65 64 64 64 65 64 64 64 65 65 65 65 63 64 67 69 69 69 68 68
66 65 64 64 63 61 61 64 64 64 65 67 66 65 64 64 64 63 63 63 62 61 61 61 63 63 64 63 63 63 63 63 62 62 62 62 65 68 68 69 69 69 68
62 65 64 64 64 61 59 61 64 64 65 66 66 65 63 61 61 61 61 62 61 61 59 59 59 61 60 59 61 61 61 61 61 60 60 63 64 65 67 68 68 68 68
56 58 60 62 62 62 60 62 62 63 63 63 64 64 62 60 59 59 61 61 60 60 60 59 59 59 57 55 56 56 59 59 59 57 57 61 64 64 65 67 67 67 68
49 53 56 58 60 58 59 62 62 62 62 62 61 60 59 58 58 59 58 58 57 58 56 57 56 55 55 55 55 55 56 56 58 59 59 61 63 64 63 66 67 67 67
45 49 55 57 57 57 57 61 60 60 61 60 59 58 58 57 56 57 56 57 56 56 55 55 54 54 52 53 54 54 54 55 55 56 57 59 61 62 63 64 65 65 66
42 47 53 55 57 56 53 52 51 52 54 53 54 54 58 57 56 57 56 56 55 55 55 54 54 57 56 56 56 55 55 55 56 56 57 59 60 61 62 62 63 64 65
40 45 52 53 55 55 53 51 49 48 48 50 52 53 55 55 54 55 55 55 53 53 52 51 50 50 50 52 54 56 57 57 57 57 57 57 58 60 61 60 61 62 64
39 42 47 50 51 50 53 51 49 47 46 48 50 51 52 49 46 47 48 51 50 51 51 51 48 49 48 50 49 50 52 53 53 55 57 58 58 58 59 60 61 61 61
36 40 41 45 48 47 50 51 50 47 45 46 49 49 49 49 47 46 46 45 43 45 47 39 40 40 40 41 42 43 46 49 46 45 48 53 58 59 59 60 61 61 61
36 37 32 40 41 41 42 44 42 43 41 43 49 49 48 47 46 45 47 45 42 43 41 40 39 39 37 38 38 39 38 37 37 40 41 43 49 59 59 59 59 60 61
33 35 32 29 32 38 39 37 37 39 39 40 46 48 47 45 44 41 45 44 42 42 41 41 38 39 39 38 38 37 38 37 39 38 40 44 49 55 57 59 59 59 58
31 31 33 33 33 35 35 35 34 34 37 38 40 46 46 45 43 40 41 44 43 41 41 39 38 38 37 38 37 37 37 37 36 36 40 43 49 53 55 56 59 59 59
30 30 31 31 33 34 34 35 34 34 35 36 37 39 45 44 41 39 39 41 41 41 39 39 40 39 39 39 37 37 34 35 36 37 38 39 41 44 48 46 50 56 57
31 32 32 31 32 35 36 34 35 36 36 36 36 37 40 42 42 41 39 40 39 39 38 38 37 37 36 38 38 37 35 33 36 37 37 39 39 41 43 45 46 51 55
34 34 33 34 34 35 37 35 33 32 32 33 34 35 38 41 41 40 40 40 39 40 39 40 39 39 39 36 39 40 39 38 36 32 37 38 40 40 42 43 45 47 52
34 36 37 37 36 37 38 38 37 34 35 35 36 34 35 38 40 41 40 40 41 41 37 34 34 32 36 35 35 36 36 37 36 34 30 29 33 39 41 42 43 46 45
38 38 40 39 39 39 40 39 39 37 36 36 36 37 39 37 37 39 38 37 36 35 34 33 32 29 30 31 31 34 35 32 30 32 30 28 28 29 34 35 34 39 41

GFSSE_sfc_dewp_003.txt.gz
Dewpoint
61 66 70 71 71 72 72 72 72 72 72 72 71 70 69 68 68 68 68 68 68 68 65 65 65 66 67 67 67 68 68 68 70 70 70 68 66 67 68 70 69 68 70
62 66 69 70 71 72 72 72 72 72 72 71 70 69 69 68 68 67 68 65 65 64 63 63 64 66 67 68 67 67 68 68 68 69 70 70 68 68 68 69 68 69 70
63 65 67 69 71 71 71 72 72 72 71 70 70 69 68 67 67 67 67 64 63 63 61 65 65 67 67 66 66 67 67 67 69 69 70 68 67 68 68 70 68 70 70
64 66 66 69 70 70 70 71 71 71 71 70 70 69 68 68 66 67 64 64 62 60 61 61 63 66 66 67 67 66 67 67 67 68 68 68 67 68 67 68 68 68 69
64 65 66 68 69 70 70 70 70 70 71 70 70 69 68 67 67 66 64 63 61 61 61 62 64 63 63 64 63 64 66 66 66 66 66 67 67 68 67 68 69 69 69
63 63 65 67 69 69 68 68 68 69 69 70 69 68 67 66 65 65 63 62 62 62 62 63 64 66 65 64 64 65 65 66 66 63 65 66 66 67 68 69 69 69 69
63 64 65 66 67 68 67 67 68 68 68 69 69 68 67 66 64 62 63 64 63 64 64 65 66 65 65 64 64 64 64 64 64 64 64 65 65 66 68 69 69 69 69
63 65 65 66 66 66 67 67 67 68 68 68 68 68 67 65 65 64 63 63 64 64 63 63 63 63 63 62 63 64 64 63 64 64 65 64 66 67 67 69 68 69 69
64 64 64 64 64 65 65 65 66 66 67 67 66 66 66 66 66 64 64 63 63 64 64 64 64 63 63 64 63 64 63 64 63 64 64 64 65 66 66 67 68 68 68
63 64 63 63 63 61 61 64 64 65 66 66 66 65 64 64 64 63 62 62 61 61 59 59 61 62 62 62 61 61 62 63 61 62 62 62 65 66 66 68 68 67 68
64 63 63 63 62 60 59 61 64 65 66 66 65 64 62 60 59 59 60 61 61 60 60 60 59 59 57 56 57 58 59 60 60 60 59 61 63 65 65 67 67 67 67
61 63 63 63 62 61 60 61 61 62 63 63 64 62 60 58 57 58 60 60 59 59 59 59 59 58 56 55 55 56 55 57 58 59 59 62 62 64 65 66 66 67 66
60 60 61 62 61 61 61 61 60 61 61 61 61 61 59 58 57 57 57 58 56 57 55 55 54 53 51 52 53 53 54 54 55 56 57 60 60 61 63 65 66 66 66
50 53 56 58 58 57 60 61 61 60 60 60 59 58 57 56 55 56 56 56 56 55 54 54 54 54 53 53 53 53 54 54 55 56 57 59 60 60 61 63 64 65 66
45 49 55 56 57 55 54 53 55 57 60 59 58 57 57 56 55 55 55 55 54 54 54 53 52 52 53 54 54 54 55 55 56 57 56 59 60 61 61 61 63 64 64
43 46 52 55 56 54 51 50 50 51 52 53 53 53 56 56 55 55 55 55 54 52 51 50 48 48 48 49 51 51 53 54 54 55 56 56 58 59 59 61 61 61 62
41 44 51 52 54 53 53 51 49 48 48 49 51 52 54 53 50 52 53 53 52 50 50 49 45 46 43 46 45 46 46 48 52 49 49 52 53 56 59 59 61 61 61
38 43 46 48 50 49 52 51 50 49 47 47 49 50 51 49 46 45 45 48 46 43 49 42 37 38 39 39 41 40 41 44 42 39 42 46 51 52 57 60 60 60 61
37 40 38 46 47 45 48 49 47 46 44 43 47 49 48 48 48 46 46 45 43 42 42 39 39 39 37 37 36 37 37 37 37 38 37 39 43 49 55 59 60 60 61
37 34 31 38 39 40 40 39 37 38 41 42 42 47 48 48 47 44 45 46 43 42 41 41 39 39 38 38 37 37 37 37 37 37 37 40 42 48 51 53 56 59 59
34 33 29 29 31 36 36 36 35 35 36 38 39 41 47 47 46 43 42 45 44 41 41 41 39 37 37 38 36 36 37 37 35 36 38 40 42 43 44 48 50 51 55
30 31 31 32 32 33 34 34 34 34 34 35 37 38 44 47 46 43 41 42 44 42 41 41 39 39 38 39 36 36 32 33 36 37 38 39 40 42 44 44 45 47 50
29 30 30 30 31 33 35 34 34 35 36 35 35 36 37 43 46 44 41 39 41 43 41 39 39 38 36 38 38 35 32 31 35 36 34 38 38 40 42 43 44 47 48
32 33 33 33 33 34 35 35 34 33 32 34 35 35 35 40 40 43 42 39 39 40 39 38 38 37 36 33 36 39 37 36 28 26 33 30 32 35 39 42 43 42 45
33 34 37 38 38 38 38 38 39 38 38 38 38 37 36 36 41 41 42 40 39 41 40 39 37 34 33 33 30 31 31 33 35 33 24 23 29 32 36 40 41 42 40
39 39 39 39 39 39 39 40 40 39 39 39 39 38 38 38 38 40 40 40 37 35 34 31 30 29 31 31 33 34 32 28 27 29 29 26 29 30 33 36 37 39 41

GFSSE_sfc_dewp_006.txt.gz
Dewpoint
60 65 70 71 72 72 71 71 71 72 72 71 71 70 70 70 69 69 69 69 69 67 66 66 66 66 66 65 67 69 69 70 69 69 69 67 66 67 69 70 69 68 70
61 65 69 71 71 72 72 71 71 71 72 71 70 70 69 69 68 69 66 65 65 64 63 65 66 65 67 67 67 68 68 68 69 70 70 69 68 67 68 70 69 68 69
63 65 66 70 70 71 72 71 71 71 71 70 70 69 68 67 67 67 66 64 63 62 62 64 65 66 67 67 68 68 68 68 68 68 70 67 67 69 67 70 70 70 70
64 65 66 69 70 70 71 71 71 71 70 70 70 69 68 67 67 67 65 64 62 61 61 63 62 65 66 66 66 67 67 66 67 68 68 67 67 68 67 69 69 69 69
63 64 67 68 69 69 70 70 70 71 71 70 70 69 68 67 66 66 64 62 62 62 62 62 64 64 65 65 65 65 65 66 66 65 65 66 67 67 66 68 69 70 69
61 62 66 67 68 69 68 68 68 69 69 69 69 68 67 66 65 65 64 63 64 64 63 64 64 65 66 65 64 64 66 64 64 63 64 66 67 66 68 68 68 69 69
61 62 64 67 68 68 67 67 68 68 69 69 69 68 67 66 64 61 62 64 63 64 64 64 64 64 64 64 63 64 64 64 62 63 64 64 65 66 66 68 68 68 68
62 63 63 66 66 67 67 67 67 67 67 67 68 68 66 65 65 64 64 64 64 64 64 64 64 63 63 63 64 63 63 63 64 63 64 64 65 66 67 68 68 67 68
62 62 62 63 64 65 65 65 66 66 67 66 66 66 66 66 65 64 63 63 62 62 61 61 62 63 63 62 62 61 62 64 62 62 63 64 65 66 66 67 68 67 68
62 62 61 61 61 61 61 64 65 65 66 66 65 64 64 64 63 62 60 61 61 61 60 60 60 60 59 58 58 59 60 61 60 61 61 61 63 64 66 66 68 67 68
63 62 61 61 61 59 58 61 64 65 66 66 65 64 62 59 57 57 60 61 60 59 59 59 59 58 57 56 57 57 57 57 58 58 59 61 62 63 64 65 67 67 67
61 62 62 61 61 59 59 59 60 61 62 63 63 61 59 57 56 57 59 60 59 58 58 58 57 56 53 52 53 55 54 54 55 56 57 59 60 61 62 64 65 66 66
60 62 63 62 61 60 60 60 59 59 60 60 61 60 59 58 56 57 56 56 55 57 54 54 54 53 52 52 53 53 54 54 55 55 57 59 61 61 61 61 63 64 65
59 61 61 61 60 59 59 60 59 59 59 59 59 59 57 56 54 55 55 55 55 55 53 53 53 53 53 53 53 53 53 54 55 56 57 59 59 60 61 62 61 62 64
55 56 56 57 57 56 58 58 58 59 59 59 58 57 57 55 54 54 55 55 55 54 53 53 51 50 49 50 51 52 53 53 54 54 54 54 54 52 52 56 61 62 62
49 50 54 55 56 54 52 52 53 55 56 57 56 57 56 56 55 54 54 54 53 53 52 50 48 46 46 47 48 47 47 48 51 50 48 48 51 51 52 54 55 59 62
45 46 52 54 55 53 52 50 49 49 50 51 52 52 53 55 54 53 53 53 53 52 49 49 46 45 43 43 42 43 43 44 49 46 42 44 46 49 52 55 57 57 59
40 45 50 51 53 52 52 52 50 49 48 47 49 50 52 53 51 48 49 50 52 49 49 48 39 38 39 39 40 39 40 40 40 38 40 41 44 46 51 56 57 58 58
38 43 46 46 49 48 49 51 50 49 48 46 46 49 50 50 50 46 46 46 47 44 44 45 38 39 38 37 37 37 38 37 38 37 38 39 41 44 50 52 53 57 55
38 41 39 43 46 44 42 40 39 39 40 43 43 44 48 49 48 47 46 46 45 43 42 40 39 40 39 37 37 37 37 38 38 37 38 39 41 43 44 46 50 50 51
36 33 32 34 35 37 37 37 36 36 36 38 39 41 44 47 48 47 45 45 46 43 41 41 40 39 38 39 37 36 37 38 37 37 38 41 41 43 43 45 46 46 48
33 33 31 30 31 32 34 34 35 34 35 35 37 38 39 42 45 46 45 43 43 44 41 41 40 38 38 39 35 35 31 31 34 37 38 35 40 41 41 41 43 44 48
30 30 30 30 31 33 34 34 34 35 35 35 35 35 36 39 41 45 45 44 42 43 42 41 40 39 37 38 38 33 32 29 33 34 31 35 33 36 39 38 41 43 42
31 33 34 35 36 36 38 37 37 35 35 37 37 37 37 38 39 41 45 44 42 41 42 41 40 39 37 35 37 38 35 34 24 23 30 33 31 31 35 39 39 39 42
36 38 39 39 39 39 38 39 39 38 39 40 40 39 40 40 39 39 40 42 42 41 40 40 38 37 34 33 30 32 32 34 34 28 24 26 28 32 34 37 39 41 38
38 38 39 39 39 39 39 39 38 37 37 37 37 39 40 40 38 38 39 40 38 37 34 34 35 33 32 33 33 33 32 28 26 27 28 27 26 29 33 33 36 37 39

GFSSE_sfc_dewp_009.txt.gz
Dewpoint
61 67 70 71 71 71 71 71 71 71 71 71 71 71 71 70 70 69 67 67 66 65 65 65 66 66 67 66 66 67 69 69 69 69 68 66 67 68 69 71 71 65 71
63 67 69 71 71 71 71 71 70 71 71 71 70 70 70 69 69 67 66 65 65 64 64 64 65 66 67 68 67 67 68 68 69 69 69 66 65 66 68 69 69 67 71
64 66 67 70 71 71 71 71 70 71 71 70 70 69 68 68 67 67 66 65 64 62 62 64 63 66 68 68 67 67 68 68 67 68 69 62 61 67 67 69 69 70 70
63 65 67 69 70 71 71 71 71 71 70 70 69 68 68 67 67 67 66 64 62 63 63 64 65 64 65 65 65 65 65 66 67 67 63 62 62 68 67 68 68 69 69
62 64 67 68 69 69 70 71 71 71 71 71 70 69 68 67 67 67 65 63 63 64 64 64 64 65 66 65 64 65 65 65 65 63 63 63 64 65 67 69 69 69 69
60 64 66 67 68 68 68 69 69 69 69 69 69 68 68 67 66 65 64 64 64 64 65 64 65 65 66 65 64 64 64 64 63 61 62 63 64 66 68 68 68 68 68
60 63 64 66 67 68 67 67 67 68 69 69 68 68 67 66 64 63 62 64 64 65 65 65 64 63 63 62 63 63 63 64 61 60 60 63 64 65 66 66 68 68 68
59 62 63 66 67 67 67 67 67 67 67 67 67 67 67 66 65 65 65 64 63 63 62 63 64 64 64 64 64 63 64 64 63 63 63 64 65 65 65 66 67 68 67
61 61 62 62 63 66 65 65 65 66 66 66 66 66 65 65 64 63 63 62 62 62 61 61 61 61 61 60 60 59 61 62 62 62 61 61 63 64 65 65 66 66 66
62 62 63 63 61 62 62 64 65 65 66 65 65 64 63 64 62 61 59 60 61 60 60 60 59 59 58 58 58 58 58 58 59 60 60 60 62 63 64 65 65 67 67
62 62 63 63 62 61 61 62 63 65 65 65 64 63 62 61 60 58 59 60 60 59 58 58 58 57 56 55 56 56 55 54 54 54 56 59 60 61 62 64 65 66 67
62 63 62 64 63 62 58 61 62 62 63 65 64 64 62 62 60 59 59 59 59 59 58 58 57 55 52 52 54 55 55 56 56 56 55 60 61 61 61 62 62 65 66
61 62 62 64 65 63 60 61 61 61 62 63 65 65 63 62 62 61 60 59 60 58 58 57 57 57 58 57 57 56 55 55 55 56 56 59 58 60 61 61 62 62 64
62 63 64 64 65 65 63 62 62 61 62 62 62 64 64 62 61 60 58 59 60 60 59 59 59 58 57 56 55 54 53 53 50 51 50 54 52 51 53 55 58 61 62
60 62 64 65 64 63 61 62 62 62 62 62 62 63 62 61 61 59 58 58 59 59 58 58 57 53 50 49 50 49 47 48 50 45 44 49 51 50 52 53 54 57 60
58 59 61 60 60 59 58 60 61 62 62 62 62 62 62 61 60 58 58 58 58 58 58 58 54 49 48 47 48 47 45 45 48 47 40 42 48 50 54 55 56 56 58
55 55 57 58 59 59 57 55 54 55 56 58 60 61 60 60 59 59 58 57 57 58 58 55 51 49 46 45 45 45 44 44 46 44 41 41 42 49 53 53 55 56 54
49 52 54 54 56 58 56 55 54 53 53 52 53 54 56 56 57 57 56 55 56 57 56 53 51 46 42 42 42 41 41 41 42 42 41 41 40 40 47 50 51 49 50
47 49 52 54 54 55 54 53 55 55 53 52 51 50 53 54 55 55 54 53 54 52 53 52 49 47 41 41 39 40 41 39 41 37 39 40 43 43 42 47 49 48 47
44 47 49 49 51 51 49 48 46 45 45 46 46 46 49 49 53 53 52 53 51 49 49 48 47 45 42 41 36 36 41 41 41 40 39 35 40 42 41 42 41 40 47
43 45 45 45 46 45 42 41 40 41 40 41 40 43 45 45 48 50 49 50 51 49 48 48 47 46 43 43 41 40 40 42 42 39 39 39 37 41 41 41 35 33 34
41 41 37 36 37 37 37 39 40 40 40 40 42 44 44 44 44 44 48 47 48 47 49 49 48 44 43 44 39 38 35 36 38 39 37 38 42 37 35 33 33 34 33
37 38 36 37 39 41 42 40 41 42 41 40 38 39 40 44 44 44 45 46 47 47 46 49 49 46 43 43 44 38 35 32 34 37 39 34 39 34 33 32 33 31 35
40 43 42 42 41 41 43 41 41 38 36 38 40 39 41 44 44 43 43 44 46 46 46 47 46 47 45 42 42 40 40 37 33 31 33 34 32 30 33 34 32 32 34
42 43 43 42 41 42 41 40 39 40 39 39 39 39 40 41 42 42 42 43 44 44 45 46 46 45 43 42 40 39 36 34 35 27 26 27 29 30 31 32 31 35 31
42 43 44 42 41 42 42 40 41 41 40 39 40 39 38 39 39 40 40 42 41 41 41 40 40 40 39 39 37 36 33 30 28 29 28 29 32 31 29 29 31 31 33

GFSSE_sfc_dewp_012.txt.gz
Dewpoint
58 65 70 71 71 72 71 70 70 71 71 71 71 72 71 70 69 68 68 67 65 65 65 65 65 66 66 67 67 66 67 68 66 66 67 66 66 67 68 70 70 64 70
60 65 70 71 72 71 71 70 70 71 71 70 70 70 70 69 68 67 66 65 65 64 64 65 64 66 67 68 68 68 67 68 68 68 66 66 64 66 67 68 68 66 70
59 64 66 70 71 71 71 71 71 70 70 70 70 68 68 68 68 67 66 65 64 63 63 64 64 67 67 66 65 66 66 66 67 67 67 58 56 66 66 68 67 69 70
59 62 64 69 71 72 71 71 71 70 70 69 69 68 68 68 67 67 65 64 63 64 63 63 65 66 66 65 64 64 64 64 65 65 60 59 56 66 67 68 68 68 69
57 60 64 68 69 70 71 71 71 71 70 70 69 69 68 68 67 66 64 64 64 65 65 65 66 66 66 65 64 64 64 64 64 62 59 60 59 63 66 67 68 68 68
52 56 65 68 68 68 68 69 69 69 69 69 69 68 67 66 66 63 63 64 64 65 65 65 64 63 63 63 62 62 63 63 63 57 58 60 61 64 65 67 68 68 68
52 56 57 67 67 67 66 67 67 68 68 68 68 67 67 65 64 64 64 64 65 65 64 65 64 63 63 64 64 64 63 63 59 57 57 59 62 66 65 66 68 68 68
53 57 57 64 66 67 66 66 67 66 66 66 67 67 66 66 65 64 64 64 63 62 62 63 64 64 63 62 61 61 63 63 60 59 60 60 64 65 64 65 67 67 68
53 54 57 57 62 66 65 66 66 66 66 65 65 65 65 65 64 63 62 62 61 61 61 61 61 61 60 59 58 58 59 60 60 59 58 57 63 63 64 64 64 66 67
56 55 58 60 58 60 60 64 65 65 66 64 63 63 63 63 61 61 58 60 60 60 59 59 59 58 58 58 58 57 57 58 56 57 58 58 61 62 63 64 64 64 65
57 59 60 59 60 61 59 60 62 64 65 65 64 62 61 59 59 57 59 59 59 58 58 58 57 55 54 55 56 56 57 52 54 52 53 60 60 61 61 63 63 64 65
58 60 61 63 62 62 56 61 61 60 61 62 62 63 60 62 61 59 59 58 58 58 56 56 57 56 54 48 50 55 49 52 50 50 52 60 61 61 61 61 62 63 63
56 58 61 64 65 63 59 58 57 57 59 61 64 64 62 62 61 60 59 56 57 57 54 54 54 51 54 53 50 52 50 51 47 48 51 54 52 53 55 57 60 62 63
54 57 61 63 65 65 59 57 58 57 58 59 60 64 63 60 60 60 57 55 55 53 56 54 53 56 55 52 50 48 47 45 42 45 47 50 50 49 50 52 54 57 61
56 59 62 64 65 62 62 59 60 61 58 60 60 60 63 60 59 57 56 54 53 52 52 53 52 51 49 46 44 45 43 43 45 41 41 46 49 52 53 53 54 55 57
56 58 62 64 64 59 57 60 59 60 58 59 57 57 62 61 58 55 53 50 49 49 50 51 50 49 46 45 43 45 43 42 42 44 38 42 47 52 53 53 56 56 56
54 55 61 63 60 58 56 55 55 53 54 52 52 56 59 59 56 56 52 50 49 50 53 53 52 50 47 43 42 42 42 43 41 43 39 39 43 51 51 52 51 51 51
50 53 58 57 56 56 54 53 52 51 52 50 51 52 55 55 56 55 51 51 51 52 50 49 49 47 46 43 41 39 39 40 41 42 40 40 37 35 48 50 48 48 50
44 50 55 57 53 52 53 51 52 54 52 48 49 47 49 51 52 53 50 50 53 51 50 49 48 48 46 42 39 39 40 39 39 36 39 41 42 39 37 47 47 46 45
46 51 54 53 51 52 50 50 45 45 45 45 43 42 45 45 48 50 49 51 52 50 49 48 49 47 46 44 36 35 39 40 40 39 39 37 38 42 41 41 41 39 44
47 48 47 48 45 45 42 40 40 41 40 41 42 45 47 46 46 48 46 47 48 48 49 51 49 49 47 46 44 41 40 42 44 40 39 38 37 39 41 40 36 33 35
44 42 40 39 40 40 39 41 43 44 43 43 43 44 43 44 43 42 45 45 45 45 47 49 50 49 48 47 44 41 37 37 39 41 40 39 41 37 38 37 36 35 35
43 43 40 42 43 44 43 41 41 41 41 39 39 38 39 41 40 41 42 43 45 44 43 45 47 47 45 47 48 44 38 36 36 38 42 39 41 39 37 35 35 33 34
45 45 43 43 41 42 44 41 43 39 38 40 40 39 39 41 40 39 40 43 44 43 44 44 42 46 46 44 45 45 47 44 38 36 38 40 39 38 39 35 34 35 35
44 45 45 43 42 42 41 43 41 42 41 40 40 41 39 37 37 37 39 43 43 43 44 46 47 46 45 45 43 43 44 43 43 39 36 36 36 35 33 35 36 35 35
44 45 45 42 41 43 43 42 43 43 42 40 38 37 35 35 35 37 38 42 44 43 44 43 44 44 43 43 42 41 39 37 37 36 37 37 36 35 33 34 35 35 36

GFSSE_sfc_dewp_015.txt.gz
Dewpoint
59 65 71 71 71 71 71 70 70 71 71 71 71 71 70 69 69 68 67 66 66 65 65 66 65 66 67 68 68 68 68 68 68 67 66 64 65 66 68 69 69 65 69
60 65 71 71 71 71 71 70 71 70 71 70 70 70 69 68 67 66 66 66 65 65 65 65 65 68 69 67 67 67 67 67 67 68 67 66 66 66 67 67 69 66 68
61 63 66 71 72 71 71 70 70 70 70 70 69 68 69 68 67 67 66 65 65 64 64 64 66 66 66 66 65 65 65 65 66 66 67 57 60 67 67 67 67 67 67
59 61 66 70 72 72 72 71 71 70 69 69 68 68 68 67 67 66 64 64 64 65 65 65 64 66 66 65 64 64 64 64 64 65 59 59 60 68 67 68 67 67 67
56 61 67 69 70 71 71 71 71 70 70 69 69 69 68 67 67 65 64 64 65 65 65 65 66 66 66 65 64 63 63 64 64 63 57 61 58 65 65 66 67 68 69
51 58 66 68 69 69 69 69 69 69 69 69 69 68 67 67 64 63 64 65 65 65 65 65 64 63 63 63 63 63 62 63 64 56 57 62 60 66 64 66 67 68 68
47 52 59 67 67 67 66 67 67 67 68 68 67 67 66 65 65 65 65 65 64 63 64 64 65 65 65 64 64 64 64 64 59 56 60 60 64 66 66 66 67 68 68
49 52 55 64 66 66 66 66 66 66 66 66 67 67 66 65 64 64 64 63 63 62 62 62 63 62 62 61 60 60 61 62 59 56 60 61 65 64 65 65 66 66 67
49 50 53 55 61 66 66 66 66 65 65 65 64 65 65 64 63 62 62 62 61 61 60 60 60 59 59 59 58 58 58 59 58 55 55 59 63 63 63 64 64 65 64
50 52 55 56 55 58 61 65 65 65 65 64 63 62 62 64 62 61 59 60 60 59 59 58 58 57 57 58 57 57 58 59 56 52 53 59 61 62 63 63 64 64 64
51 55 55 55 55 56 53 60 62 64 65 65 64 63 62 58 58 58 60 59 58 58 58 57 56 55 56 57 57 56 58 51 50 48 51 61 61 61 62 62 62 64 64
53 53 56 59 57 57 50 56 57 55 56 58 58 60 57 60 59 57 59 60 60 59 59 58 58 58 57 49 50 57 51 48 47 45 50 58 57 58 60 61 62 62 63
51 50 54 63 62 58 55 52 52 52 55 56 60 60 59 59 58 57 56 55 56 58 53 55 53 52 53 52 49 49 47 47 43 43 50 52 50 52 53 55 58 60 62
48 49 54 61 63 61 54 51 52 52 54 54 56 59 58 56 57 56 53 52 52 49 52 51 51 53 54 51 48 47 46 44 38 39 46 50 47 49 50 52 54 56 59
47 50 53 58 64 59 58 54 55 56 54 56 56 56 56 55 56 54 53 51 50 49 49 49 49 49 49 48 46 45 44 44 44 42 41 50 48 51 52 52 54 55 57
48 50 53 57 63 58 53 55 56 57 55 54 53 53 55 56 56 53 52 49 48 47 47 48 49 49 48 46 45 45 44 43 42 43 40 43 50 52 51 52 55 55 55
47 49 53 58 62 57 53 52 51 50 49 49 49 52 52 54 54 55 51 51 49 51 53 50 49 49 48 46 45 43 43 44 43 43 42 39 44 51 52 52 51 50 51
45 46 49 56 59 57 51 50 49 48 50 48 49 50 51 52 53 54 50 51 52 53 50 50 48 47 46 46 45 43 42 41 42 42 42 41 39 39 49 51 49 49 50
42 44 47 57 57 53 50 48 51 51 50 46 47 45 47 48 49 51 49 50 55 51 52 51 49 50 47 47 45 44 43 41 42 37 40 42 44 40 39 52 50 49 47
43 47 50 55 53 51 49 49 44 44 44 44 43 43 46 47 48 49 48 51 51 48 48 49 53 50 50 49 44 42 47 44 43 44 41 39 40 44 42 44 44 41 48
49 50 51 51 48 45 42 41 40 41 41 42 43 45 47 45 45 46 44 45 47 45 48 51 50 51 49 51 49 48 48 48 48 44 44 42 41 41 45 43 41 38 40
45 44 43 42 42 41 40 42 45 45 43 43 44 44 43 44 43 42 44 42 43 42 48 49 50 48 48 50 48 47 45 44 45 45 44 45 47 42 40 43 44 42 39
45 43 42 42 43 44 44 41 41 42 42 40 40 41 41 43 42 42 41 42 45 45 44 48 47 47 44 46 49 46 43 40 42 44 47 45 46 44 43 42 43 38 39
46 45 43 42 42 42 45 42 45 41 40 42 42 41 41 41 39 37 38 42 45 45 46 46 42 48 47 44 45 41 47 47 44 43 44 45 44 43 47 43 41 38 38
45 46 45 42 42 43 44 44 43 43 42 42 41 41 41 39 39 36 38 43 44 43 45 46 45 45 43 43 42 43 44 44 45 43 43 43 44 42 42 44 41 39 37
44 46 46 43 41 42 44 44 44 43 42 40 40 39 37 38 37 38 37 42 44 43 43 43 45 44 42 42 41 40 39 39 38 38 37 40 40 46 44 43 41 40 40

GFSSE_sfc_dewp_018.txt.gz
Dewpoint
64 67 71 72 72 72 71 71 71 72 72 72 71 71 70 69 69 68 68 68 68 66 66 66 66 69 69 68 68 68 68 69 69 70 69 68 67 67 69 70 69 64 69
65 68 71 72 72 72 71 71 72 71 71 71 71 70 70 69 68 68 66 66 66 65 65 66 66 67 67 66 66 66 66 67 68 68 69 67 68 66 67 70 68 64 67
64 66 69 71 72 71 72 72 71 71 71 70 70 70 69 68 68 66 66 66 66 66 66 65 66 67 66 65 65 65 65 67 67 67 67 63 60 68 67 69 69 70 68
64 66 69 71 71 72 72 72 71 70 70 70 69 68 68 68 67 66 65 66 66 66 66 66 67 66 66 66 65 64 64 65 66 66 61 59 62 66 67 67 68 68 69
63 66 69 70 71 71 71 71 71 71 71 70 70 69 68 67 65 64 65 65 66 65 65 65 64 64 64 64 64 64 63 64 65 63 59 60 64 66 67 66 68 69 69
61 64 67 68 69 70 70 70 70 70 70 70 69 68 67 65 64 65 65 66 64 64 64 65 65 64 65 65 64 64 64 65 64 57 56 62 63 65 65 65 67 67 68
57 61 63 67 68 68 68 68 68 68 68 68 68 67 66 65 65 65 64 64 63 63 63 64 64 64 63 62 61 62 63 63 61 59 59 63 64 65 65 66 67 67 68
53 57 59 66 67 67 67 67 67 67 67 68 68 66 65 64 64 64 63 63 62 62 61 61 61 62 61 61 60 61 60 61 57 57 59 63 65 65 64 65 66 66 66
49 52 57 60 64 66 66 66 66 66 66 66 66 66 65 64 64 63 62 62 61 61 60 59 59 59 59 59 59 60 59 60 58 56 56 60 64 64 64 64 64 65 65
52 53 56 59 60 62 63 65 65 65 65 65 64 64 64 64 64 62 63 61 60 58 58 58 58 58 58 58 59 59 59 59 55 55 59 61 63 63 63 62 63 64 64
51 57 57 55 58 60 61 62 65 65 65 64 64 63 62 62 62 61 61 61 60 59 59 58 58 58 58 59 59 60 59 53 52 48 58 62 61 60 61 62 62 63 64
54 55 58 60 59 58 49 61 62 61 62 62 62 63 62 62 60 59 61 61 61 61 61 61 61 60 59 53 55 59 56 53 49 48 57 59 57 56 56 60 61 62 63
52 54 58 64 62 60 59 55 58 59 60 62 64 62 62 61 63 61 61 61 61 61 59 59 58 57 55 55 53 53 51 48 47 46 53 56 53 51 52 55 57 59 61
51 51 59 63 64 61 59 57 58 58 59 60 60 61 61 60 61 59 58 55 55 54 54 54 53 55 54 55 52 50 48 48 45 45 50 53 52 48 49 53 55 57 58
49 53 55 63 65 63 60 60 60 60 61 60 59 60 60 59 59 59 57 56 55 54 53 53 52 52 52 51 51 49 47 47 47 46 48 51 52 50 51 53 54 56 57
50 53 58 61 65 61 57 58 60 61 61 60 58 57 57 58 59 58 57 56 55 54 54 53 51 52 52 51 50 50 47 45 45 46 45 47 52 54 53 53 54 55 57
50 50 60 61 64 61 56 57 56 55 52 54 55 55 55 55 56 57 56 55 55 55 55 53 53 51 51 50 49 50 49 47 47 46 46 46 47 54 55 54 56 54 53
48 50 51 56 63 61 58 55 54 55 55 53 54 55 54 55 54 55 55 55 56 56 55 54 53 51 50 50 49 50 47 46 46 47 46 45 44 43 53 56 55 53 53
47 48 49 61 60 59 56 53 55 54 54 54 53 52 53 52 54 54 53 54 55 53 53 53 51 52 50 50 49 47 48 47 45 42 43 45 45 44 46 53 55 54 55
51 51 53 57 58 58 54 53 52 51 51 52 50 51 51 50 52 52 51 53 54 50 50 50 51 51 51 50 48 47 47 48 47 47 45 44 44 44 44 47 50 49 52
53 52 53 52 52 50 48 48 49 50 49 50 49 51 50 50 49 49 48 48 48 47 48 48 48 46 47 49 48 47 47 48 48 47 45 45 44 44 44 45 45 42 44
48 48 47 46 48 47 47 48 49 49 49 48 50 49 49 49 48 45 48 47 46 46 46 46 47 46 46 47 46 45 43 43 45 45 46 44 43 43 43 42 44 43 42
49 49 45 46 47 48 49 46 47 48 48 46 47 46 47 48 46 45 45 45 46 46 45 45 44 44 44 45 46 45 42 39 41 43 43 46 50 48 47 44 43 43 43
49 50 47 46 46 46 49 48 49 46 44 46 47 46 45 46 45 41 42 44 44 45 45 45 44 46 45 43 44 43 43 43 42 40 43 45 46 49 47 48 46 43 41
50 50 50 48 45 47 48 49 48 47 47 46 45 45 44 44 43 41 41 43 43 43 44 46 46 44 43 41 40 40 39 39 40 39 37 39 41 46 48 49 48 49 48
49 50 50 47 45 46 46 46 47 47 46 44 44 42 41 39 39 41 41 42 43 45 44 44 43 42 41 40 39 39 37 37 36 36 36 36 37 41 42 45 48 48 48

GFSSE_sfc_dewp_021.txt.gz
Dewpoint
67 70 71 72 71 71 71 72 72 72 72 72 71 70 70 69 69 69 68 68 68 67 67 67 68 68 68 67 67 67 67 67 68 67 67 67 66 67 69 69 70 66 69
69 70 71 71 71 72 72 72 71 72 71 70 70 70 70 69 68 67 67 67 67 67 66 67 67 67 66 66 65 65 66 67 67 67 66 66 64 67 68 68 66 67 69
68 70 70 71 71 72 72 72 71 71 70 70 70 70 70 68 67 66 66 67 66 66 66 66 67 67 66 66 65 65 65 65 67 66 66 61 63 66 67 66 68 68 67
68 70 70 71 71 72 71 71 70 70 70 70 70 69 68 67 66 66 66 66 66 66 65 65 65 65 64 64 64 64 64 64 65 65 61 60 61 67 66 66 66 69 70
68 70 70 70 71 71 71 71 71 71 70 70 70 68 67 65 65 65 66 67 65 65 64 64 64 64 64 65 65 64 64 65 65 63 58 60 65 62 60 61 66 67 68
66 67 68 68 70 70 70 70 70 70 70 69 69 67 66 65 65 66 65 64 64 63 64 64 65 64 64 63 62 62 62 63 64 60 58 62 64 62 63 64 66 66 67
64 65 66 67 68 69 69 68 69 69 68 68 68 67 66 65 65 65 64 63 63 62 62 62 62 62 62 62 61 61 61 61 58 56 59 63 64 66 65 64 65 66 66
61 63 64 67 67 67 67 67 67 67 68 68 67 67 65 65 65 64 63 63 62 61 60 60 60 60 61 61 61 61 61 61 56 55 60 63 66 65 64 64 66 66 66
57 59 62 63 65 65 65 65 65 66 66 66 66 66 65 64 64 64 63 62 61 60 59 58 59 59 60 60 61 61 60 60 57 53 58 61 66 64 64 64 64 64 65
54 57 58 61 62 63 63 65 64 64 64 64 64 64 64 63 63 63 63 63 61 60 59 58 59 59 60 60 59 59 60 60 52 52 59 61 64 63 62 63 62 63 64
52 54 58 58 60 60 61 63 64 65 64 64 63 63 63 62 62 61 62 62 62 61 61 60 60 59 59 59 58 59 59 56 53 49 58 62 61 59 60 61 62 62 63
53 55 55 55 58 60 57 61 62 62 63 62 62 62 61 61 61 60 61 61 61 61 61 61 61 61 60 56 54 58 56 54 49 47 57 60 58 55 55 57 60 61 62
53 55 58 56 55 55 54 59 61 61 61 61 61 58 57 60 59 57 59 59 59 61 59 59 59 58 57 56 52 52 50 47 46 45 54 57 55 52 52 54 56 58 60
52 56 59 58 56 57 55 55 56 55 57 59 59 57 57 57 54 55 53 52 53 54 56 53 53 52 52 52 53 51 48 46 46 45 50 54 54 50 48 50 53 56 58
51 57 59 60 58 57 55 56 55 58 57 56 57 57 56 56 55 55 55 53 53 52 51 50 50 49 50 50 49 49 48 46 46 46 46 53 53 52 50 50 52 54 56
48 57 61 63 63 59 56 54 55 56 56 57 55 55 55 55 55 55 53 54 53 53 53 52 50 51 51 51 50 49 48 46 44 45 45 47 53 53 54 52 52 54 55
51 61 62 61 58 62 57 53 53 54 48 52 52 53 53 53 52 52 53 53 54 54 53 52 52 52 50 50 49 49 49 48 46 45 44 46 47 53 54 56 54 54 56
54 55 59 62 58 61 57 51 51 50 50 49 51 53 52 53 52 52 51 51 53 53 52 51 52 51 51 50 49 49 49 48 46 46 45 45 45 45 52 55 56 58 56
47 52 58 62 61 59 55 51 52 50 48 49 47 49 49 51 51 49 49 49 50 51 50 50 49 50 49 48 47 47 48 47 48 46 45 45 45 45 45 52 55 57 57
52 51 51 54 55 55 51 48 48 48 48 48 48 48 47 48 47 46 46 46 46 46 46 46 45 45 46 47 44 45 48 49 49 48 47 45 44 44 45 45 50 51 55
45 46 47 48 46 46 45 45 45 45 45 45 46 45 48 46 46 45 46 45 45 44 44 44 45 45 43 46 43 43 46 47 47 48 49 47 46 44 44 45 46 47 48
44 44 44 44 44 45 45 45 46 45 46 46 46 46 47 45 44 41 43 43 43 44 44 44 43 42 43 44 43 43 41 41 42 43 45 46 46 48 48 45 46 45 43
44 43 43 44 44 45 45 45 45 45 45 44 44 44 43 43 41 41 41 42 43 43 43 43 43 43 44 44 44 42 40 40 38 42 42 44 46 48 48 50 47 46 44
45 45 43 43 43 46 45 44 44 44 43 44 44 43 41 41 40 39 40 41 42 42 42 43 45 43 42 40 41 40 40 39 35 34 40 39 39 44 44 47 49 50 49
45 45 44 44 44 44 45 45 44 43 44 44 43 41 39 39 40 39 39 41 42 44 44 43 43 42 41 41 39 39 37 37 37 35 33 35 36 38 41 43 45 47 50
45 45 44 44 43 45 44 45 45 43 42 41 40 39 39 39 39 39 41 42 43 42 42 42 41 39 39 39 38 38 38 35 34 34 33 33 34 36 36 40 43 45 47

GFSSE_sfc_dewp_024.txt.gz
Dewpoint
68 70 71 71 72 72 71 72 72 72 72 70 69 69 69 68 68 68 68 69 69 67 67 68 67 67 67 66 65 65 66 66 66 66 66 66 65 65 67 69 68 67 69
69 70 70 71 72 72 72 72 71 71 71 69 69 69 69 68 67 67 67 67 67 66 66 67 67 66 66 66 65 65 65 65 66 65 65 64 63 65 65 67 66 68 68
69 69 70 71 71 72 72 72 71 71 70 69 69 69 68 67 67 66 66 66 66 66 65 65 65 65 65 64 64 64 64 65 65 64 63 60 65 66 65 66 67 66 68
69 69 70 71 71 71 71 71 70 70 69 69 69 68 67 66 66 65 66 66 65 65 64 63 64 64 64 65 65 65 65 65 64 64 58 58 63 65 63 64 66 67 68
69 69 70 70 70 71 71 70 70 70 70 70 69 67 66 65 65 66 65 65 64 63 63 64 64 64 64 63 63 62 62 62 63 60 58 63 63 63 64 61 64 66 67
68 69 69 69 70 70 71 70 70 70 69 69 68 66 65 65 65 65 64 63 63 62 62 62 62 62 62 62 62 61 61 61 61 56 57 63 63 61 61 61 65 66 66
65 67 68 68 69 69 69 69 69 69 69 68 68 67 65 65 64 64 63 62 61 60 60 60 60 60 61 61 61 61 62 61 56 54 60 62 62 65 65 65 66 65 66
64 65 66 68 68 68 68 68 68 68 67 67 67 67 65 65 65 63 63 62 60 59 58 58 58 59 60 60 61 61 61 61 57 52 54 62 65 65 64 63 65 65 65
62 63 63 65 65 66 65 65 65 66 67 66 66 65 65 65 65 64 63 61 60 59 58 58 59 60 60 60 60 59 59 60 55 51 60 61 65 64 63 64 64 64 65
58 61 61 62 62 62 63 65 65 65 65 65 65 64 63 63 63 64 63 63 62 60 59 60 60 60 60 60 59 59 59 59 53 52 59 60 64 63 63 63 63 63 64
55 57 59 60 60 61 62 63 64 64 64 64 63 63 63 61 61 60 62 61 62 61 61 61 61 60 60 59 59 59 60 54 53 48 56 60 63 61 61 62 62 62 63
53 56 56 58 59 59 59 61 61 62 62 61 61 61 61 60 61 60 61 62 63 62 61 61 62 62 61 57 55 56 53 52 50 45 51 60 60 58 57 57 60 61 62
53 56 57 58 60 58 57 60 60 61 61 61 61 61 60 60 60 60 59 59 58 59 58 58 58 57 57 56 55 53 51 49 46 45 49 58 58 56 54 54 55 57 58
54 55 55 56 57 56 56 58 59 60 60 61 60 57 56 55 54 54 53 52 53 52 54 53 54 51 51 51 52 52 51 48 46 45 47 56 57 54 52 51 52 53 56
54 55 58 57 56 55 55 56 56 57 59 58 57 56 56 55 53 54 54 53 53 52 51 51 51 50 50 50 50 49 49 49 47 46 46 52 56 55 53 52 52 53 54
55 59 61 61 61 58 55 55 55 57 55 57 56 55 55 56 54 54 52 53 52 53 53 52 51 51 51 51 51 51 50 49 47 45 45 46 55 56 55 53 53 53 53
58 61 61 61 59 60 56 54 54 54 54 54 53 54 54 53 52 52 52 50 51 52 51 51 50 51 50 49 49 49 49 49 49 47 45 45 46 55 55 56 56 55 53
60 60 60 60 58 58 59 53 52 49 49 50 52 53 52 52 51 50 48 48 49 48 47 48 48 47 46 47 47 46 48 48 48 47 47 46 45 44 51 55 56 57 57
57 60 60 58 56 59 55 51 52 51 49 49 49 49 50 50 49 47 46 47 46 45 45 46 44 45 44 44 42 42 44 47 47 47 48 47 46 46 45 49 55 56 56
54 58 58 57 57 56 51 48 50 47 47 48 47 47 46 46 46 45 45 45 45 44 44 44 43 44 44 42 41 42 44 46 47 48 48 48 48 46 45 44 45 51 54
45 46 49 49 47 47 48 47 45 45 45 46 45 45 43 42 42 41 42 42 43 43 43 43 44 42 40 42 43 42 43 44 44 44 44 46 45 47 47 48 45 46 48
45 46 45 46 44 44 45 45 45 45 45 45 45 42 42 41 41 38 41 41 41 41 41 41 41 41 42 44 42 42 39 40 41 37 41 40 44 45 42 44 47 48 47
45 45 43 43 43 44 45 44 44 44 44 44 43 41 40 41 40 40 40 41 42 42 42 42 43 42 42 42 41 40 37 35 35 36 34 39 40 41 42 43 43 47 50
43 43 43 43 44 44 44 44 43 42 42 43 42 40 39 40 40 39 42 43 43 43 42 43 43 43 42 40 41 38 39 39 34 31 35 34 36 36 39 40 42 46 48
43 43 43 44 44 45 45 45 44 43 43 42 40 38 38 39 39 40 41 42 42 41 41 40 40 39 40 38 38 37 37 37 36 34 30 32 33 36 38 37 40 43 47
44 44 43 42 44 45 44 43 42 41 40 38 37 37 37 38 39 39 39 42 41 40 40 39 38 38 38 38 37 36 36 35 33 33 32 31 30 33 33 37 40 41 43

GFSSE_sfc_dewp_030.txt.gz
Dewpoint
68 69 71 72 72 72 72 71 71 71 70 69 69 68 68 68 68 68 68 68 67 66 66 66 66 65 65 65 65 65 65 65 65 65 65 65 65 65 67 69 69 67 68
69 69 70 71 72 72 72 71 71 70 70 68 68 68 67 67 67 66 66 66 65 64 63 63 63 64 64 64 65 65 64 64 64 65 64 65 65 64 65 66 68 68 68
69 69 70 71 71 71 71 71 70 69 69 68 68 67 67 66 66 66 66 64 63 63 62 63 63 62 62 61 61 61 61 62 62 63 63 59 62 65 63 65 67 66 67
68 69 70 71 71 71 71 71 70 69 69 68 67 67 66 65 65 65 64 64 63 62 61 61 61 61 61 61 60 60 60 60 60 59 56 59 60 66 64 62 64 65 66
68 69 70 70 70 71 70 70 70 70 69 68 67 65 65 65 64 64 63 63 62 61 59 59 59 59 59 60 59 59 60 60 59 54 57 59 64 63 65 62 60 64 66
68 69 68 69 70 70 70 70 70 70 69 68 67 65 65 64 63 63 63 62 60 59 59 59 59 59 59 61 60 59 60 60 57 51 54 61 63 65 63 65 66 65 65
67 68 68 68 69 70 69 69 69 69 68 68 67 66 64 63 63 62 62 61 60 58 58 58 59 59 60 61 61 60 60 61 53 51 57 61 62 66 65 66 66 66 66
66 67 67 69 69 69 69 69 68 68 67 67 67 66 65 64 64 62 61 60 59 58 59 59 60 60 61 61 61 61 60 60 51 50 55 60 63 65 63 65 66 66 66
66 65 65 66 67 68 67 67 66 66 66 66 66 65 65 64 64 63 62 61 61 61 61 62 62 62 62 62 61 61 61 59 51 49 52 58 62 63 62 63 64 64 65
62 62 62 63 63 63 64 65 65 65 65 65 65 64 63 63 63 63 62 61 62 62 63 63 63 63 62 62 61 61 60 56 51 49 47 52 59 59 61 62 62 62 63
59 60 60 61 60 60 61 63 65 65 64 64 63 63 62 60 59 59 62 63 63 63 63 63 63 62 61 59 59 60 57 52 51 49 46 52 57 58 59 60 62 61 61
57 58 59 59 59 59 59 61 61 62 62 61 61 61 60 59 59 60 60 61 61 60 59 59 58 58 55 53 53 54 52 52 51 50 47 53 55 57 57 58 61 60 60
54 56 58 58 58 58 58 60 59 60 60 60 60 60 59 59 59 59 58 56 54 54 52 52 52 51 50 51 51 51 50 50 51 50 49 54 55 56 57 57 59 59 59
52 54 56 57 57 57 57 59 58 59 59 60 60 60 59 57 55 54 52 52 52 52 51 51 51 50 49 49 48 48 48 48 49 49 49 54 55 56 57 57 57 59 59
52 53 55 57 57 57 56 58 57 58 59 59 60 59 57 53 53 53 52 52 51 50 49 48 47 46 46 46 46 46 46 47 48 47 49 52 54 54 55 57 57 57 58
51 54 56 57 58 57 56 56 57 58 58 59 58 56 55 54 53 52 49 48 47 47 46 46 45 45 44 45 43 44 44 45 45 46 47 48 51 52 53 55 56 57 57
52 55 57 59 58 57 54 54 56 56 56 56 53 53 52 51 48 46 45 45 45 45 44 44 43 44 43 43 42 42 43 43 44 45 47 48 48 50 51 53 54 55 55
55 59 60 59 58 57 56 56 54 53 53 50 49 47 46 45 44 43 42 43 43 43 42 42 42 42 41 41 40 40 41 43 45 46 45 46 47 45 45 47 48 49 52
59 59 59 59 57 56 53 52 49 49 47 44 43 42 42 43 43 42 42 42 42 41 42 42 41 42 41 41 42 43 43 43 45 41 42 44 46 44 42 43 43 44 47
58 59 59 56 55 54 53 51 47 45 43 42 42 42 41 42 43 42 42 42 42 42 43 43 42 42 41 42 42 41 41 43 41 39 39 39 42 42 41 40 39 40 43
53 56 57 53 53 54 51 47 45 45 42 41 40 41 41 41 41 41 42 42 42 41 41 42 42 41 41 41 40 37 39 41 37 36 35 37 39 39 39 38 39 37 41
52 53 53 52 52 47 46 45 44 43 41 40 40 40 39 40 41 41 41 41 40 39 39 41 40 39 40 40 38 37 33 33 35 33 36 35 36 37 36 36 37 37 42
49 44 43 43 43 44 45 44 44 43 43 39 38 38 39 40 41 41 40 39 39 40 39 39 38 37 37 38 38 36 32 30 32 34 33 35 36 36 36 37 36 37 41
42 42 43 43 43 43 43 43 42 41 41 41 38 38 37 39 39 39 40 39 39 40 38 39 39 38 37 35 36 38 37 36 31 29 34 33 34 33 36 37 36 37 41
43 43 43 44 44 44 43 43 43 41 40 39 38 37 37 38 39 38 38 39 39 39 38 38 37 37 37 36 35 35 35 34 34 33 30 31 34 34 35 36 36 37 39
43 42 44 44 44 44 43 43 41 39 38 37 37 36 36 37 38 37 37 39 39 38 38 38 37 36 36 35 35 34 34 33 32 33 30 30 31 32 33 35 36 36 38

GFSSE_sfc_dewp_036.txt.gz
Dewpoint
64 66 71 71 72 72 71 71 71 71 71 70 69 69 69 69 68 68 67 67 66 64 64 64 63 62 62 61 61 61 62 63 63 64 65 65 67 66 66 67 68 61 68
65 67 70 71 71 71 71 71 71 71 70 69 69 68 68 67 67 66 66 66 64 62 61 60 60 59 58 59 59 60 61 61 62 63 64 64 67 67 65 66 68 64 67
65 66 67 71 71 71 71 71 71 69 69 68 68 67 66 66 65 64 65 65 62 61 60 59 58 58 59 60 60 61 61 61 61 62 63 56 60 66 65 65 65 66 65
65 65 65 70 70 71 71 71 70 69 68 68 67 66 66 64 64 64 63 64 63 60 59 58 57 59 60 61 61 61 61 60 60 63 56 58 57 66 65 65 66 65 65
65 65 67 70 70 71 71 70 70 69 69 68 67 65 64 63 63 63 63 64 62 60 60 59 59 60 61 62 61 61 60 60 62 57 55 60 59 63 65 64 64 64 65
65 65 69 69 70 70 70 70 69 69 69 68 67 65 63 62 62 62 62 63 62 61 61 61 61 61 62 62 62 61 60 60 60 46 49 57 59 64 64 64 65 64 65
64 66 68 68 70 70 70 69 69 68 68 68 67 66 64 62 61 61 62 62 61 61 61 61 62 62 62 62 62 62 60 61 44 42 44 47 52 60 61 63 64 63 62
65 66 67 69 69 69 69 69 69 68 68 67 67 66 64 63 63 61 62 62 62 62 62 62 62 62 62 61 61 61 60 60 47 44 41 42 59 58 58 60 65 65 62
66 66 65 66 68 69 68 68 67 67 67 67 66 66 65 64 64 63 63 63 63 62 63 62 62 61 60 60 60 59 58 58 49 47 44 45 58 58 58 58 61 63 62
66 63 61 62 62 63 64 66 66 65 65 65 65 64 63 63 64 62 64 63 63 62 62 61 59 58 58 58 58 58 58 59 47 46 45 51 58 60 60 59 59 61 62
64 61 60 60 61 60 58 62 64 65 65 64 63 63 61 58 58 58 62 62 60 60 60 58 57 57 58 57 55 55 57 45 45 43 42 56 56 57 59 59 60 62 62
60 60 61 61 60 60 55 59 59 57 58 60 59 60 59 62 61 58 60 60 58 58 58 57 56 57 53 44 44 51 43 45 42 41 40 53 54 56 56 57 58 59 62
55 55 56 60 60 57 56 56 56 58 60 61 62 62 63 63 64 61 58 56 57 56 52 52 49 46 49 47 45 46 44 43 40 39 43 53 53 54 56 56 57 58 59
52 53 55 57 59 59 56 56 58 58 60 61 62 64 64 61 61 59 55 55 55 52 51 49 48 49 48 47 46 46 45 43 40 40 44 52 53 54 55 56 57 57 58
50 53 55 57 57 58 59 59 60 62 61 63 63 63 61 59 59 56 55 52 51 49 48 47 46 45 45 44 44 43 42 43 43 40 40 52 50 50 51 53 53 53 54
51 54 57 57 59 58 59 61 62 62 63 63 63 62 60 60 58 54 52 49 47 46 45 45 45 44 43 42 41 42 42 41 40 42 38 41 47 45 46 48 49 49 50
52 56 58 60 61 60 59 59 61 60 60 60 60 59 58 56 55 52 49 46 46 46 47 44 43 39 38 36 36 34 37 36 35 40 39 38 39 46 41 44 45 46 46
52 56 60 60 60 59 60 59 58 56 56 57 57 55 53 51 49 48 46 46 47 44 40 37 36 35 33 34 33 29 33 31 30 40 37 38 38 35 42 42 41 43 42
53 59 60 61 60 60 60 56 56 55 51 49 49 47 48 47 48 47 45 44 43 39 39 36 34 36 34 34 30 28 31 29 29 32 37 37 37 37 35 40 39 40 39
56 59 60 61 60 58 57 57 50 48 46 46 44 44 45 46 47 45 41 42 38 35 35 36 37 35 34 35 28 28 31 32 34 36 34 30 31 35 34 35 35 33 39
59 60 60 59 58 58 56 54 49 45 45 45 44 45 46 45 42 41 37 38 37 37 37 37 34 34 32 36 32 28 27 33 37 33 31 30 32 33 33 33 33 33 33
58 60 60 59 60 57 55 50 48 47 45 44 44 45 45 42 40 37 38 37 38 34 37 38 38 35 31 33 34 30 24 24 25 30 30 31 33 32 32 33 35 34 35
58 59 58 59 58 54 50 48 47 46 45 43 43 43 43 42 39 39 39 38 39 38 35 38 38 37 33 33 34 31 27 23 26 27 28 28 32 31 31 30 32 32 34
58 58 56 54 52 50 49 46 46 43 42 44 44 44 40 42 41 37 37 40 40 39 39 38 34 39 36 33 32 29 33 31 26 25 26 26 26 26 29 28 29 29 31
54 54 52 50 48 48 48 48 47 46 46 44 44 42 42 42 41 39 39 40 40 39 40 41 40 38 36 34 34 30 29 28 28 25 24 23 23 24 24 26 27 28 28
47 49 49 47 46 47 48 48 48 47 44 41 40 38 35 37 37 38 39 42 42 42 42 41 40 39 38 38 35 32 29 27 25 25 26 26 23 22 23 23 25 26 25

GFSSE_sfc_dewp_039.txt.gz
Dewpoint
63 65 71 72 72 71 71 71 71 71 70 70 69 69 69 68 68 68 67 66 65 63 61 60 59 58 59 59 60 61 62 62 63 64 64 67 67 66 65 66 67 62 68
64 65 70 71 71 71 71 71 71 71 70 69 69 68 68 68 67 66 66 65 62 61 60 59 58 60 60 61 62 62 62 62 62 63 64 67 66 66 66 65 67 63 67
64 64 66 71 71 71 71 71 71 69 69 68 68 67 66 65 64 64 65 65 62 60 59 58 60 60 61 61 61 61 61 62 63 64 66 62 62 66 65 67 67 66 66
64 64 66 70 71 71 71 71 70 69 68 67 66 66 64 64 64 63 63 64 62 60 58 60 60 60 61 61 61 60 60 62 63 64 55 56 60 66 64 65 65 64 64
64 64 68 70 70 71 71 70 70 69 69 67 67 64 63 63 62 62 63 64 63 60 60 60 61 61 62 62 62 61 61 63 62 55 51 55 57 62 64 64 63 63 63
66 68 69 69 70 70 70 70 69 68 68 68 66 65 62 61 61 62 64 64 62 61 61 61 61 62 62 62 62 61 62 61 60 40 44 54 52 59 61 64 64 63 64
66 68 68 68 69 70 70 69 69 68 68 68 66 65 63 61 61 62 63 63 62 61 61 62 62 62 62 61 61 61 61 61 48 41 38 49 55 60 59 60 63 63 62
67 67 67 69 69 69 69 69 68 68 68 67 66 65 63 62 63 62 62 62 62 62 62 62 62 61 60 60 60 59 60 60 48 45 44 50 60 60 60 59 63 63 62
67 66 65 66 68 69 68 67 67 67 67 67 67 65 65 65 65 64 63 63 63 63 62 62 60 60 59 59 58 59 59 60 51 44 42 50 59 60 60 60 60 62 62
66 64 63 64 63 65 65 66 66 66 66 66 65 64 64 63 63 64 64 63 62 62 61 59 58 58 58 57 56 57 58 58 45 42 43 51 56 57 59 59 60 60 61
64 57 57 57 59 58 58 62 64 66 65 64 63 63 61 56 58 59 62 61 60 60 59 57 57 56 57 57 55 53 56 44 44 41 41 55 53 55 57 58 58 59 60
56 56 57 59 59 58 51 58 58 58 58 59 58 60 59 59 60 58 59 60 59 58 58 56 56 55 55 46 46 53 45 46 44 42 43 54 53 53 55 57 58 59 59
55 56 56 59 60 56 56 55 54 57 59 60 61 60 62 60 60 59 57 55 56 56 52 52 50 48 51 49 48 48 47 46 43 42 47 53 52 52 53 56 56 57 57
52 52 53 55 57 56 54 54 56 56 58 59 60 62 61 59 60 58 54 54 55 51 53 51 49 51 50 48 47 47 46 44 42 42 45 53 51 51 52 53 53 53 53
49 50 51 55 57 58 58 59 58 60 64 65 65 63 62 59 60 57 56 53 52 50 49 49 48 47 47 46 45 44 43 43 43 39 40 52 50 47 47 50 51 51 51
49 52 54 54 57 57 60 61 64 66 65 63 63 63 62 60 61 57 55 51 49 48 48 47 47 43 41 41 40 39 37 37 39 38 37 38 49 46 43 44 46 48 48
50 54 57 59 59 60 60 60 60 59 58 60 61 60 60 59 58 55 51 48 48 48 49 43 41 39 37 35 37 34 32 33 33 32 34 37 38 48 43 43 42 43 44
53 55 58 59 60 60 60 59 58 57 57 57 58 58 57 53 52 53 49 48 48 45 42 40 37 35 35 34 35 32 29 30 33 33 30 36 35 33 42 43 39 40 40
54 58 59 60 59 59 58 58 57 57 57 52 53 50 50 49 49 49 47 45 44 39 39 38 35 35 33 32 31 31 31 30 32 28 35 37 36 33 32 40 44 42 37
54 59 60 59 61 59 59 58 56 55 52 50 48 46 47 47 47 46 43 44 41 38 38 37 38 35 34 32 28 32 33 30 30 37 36 31 31 33 34 34 33 34 43
57 59 59 59 59 59 56 55 53 51 47 47 45 47 48 47 43 43 40 40 40 36 37 40 38 38 35 35 31 32 32 34 32 29 31 32 32 30 34 33 32 31 32
58 59 60 59 59 58 52 54 54 50 47 47 46 48 47 44 41 39 41 39 39 37 38 39 40 37 36 35 32 31 28 28 28 30 30 29 32 30 29 31 31 31 32
58 58 59 58 58 56 56 51 49 48 47 45 45 46 44 42 40 39 39 39 39 39 37 39 39 38 33 34 35 31 28 26 27 28 30 29 33 29 28 27 28 28 30
57 59 57 55 54 52 50 48 48 43 42 44 44 44 44 43 41 38 37 39 41 39 39 39 35 39 37 33 33 29 34 31 26 25 27 28 28 27 30 27 26 26 27
57 56 54 53 50 48 48 47 47 46 47 46 46 45 44 42 40 38 39 40 41 39 40 42 42 42 38 36 35 36 35 32 30 29 27 25 25 26 28 27 27 26 26
53 53 51 49 47 48 48 49 48 47 44 43 43 40 37 35 35 37 37 40 40 39 39 39 40 38 39 40 38 39 35 33 29 28 28 26 26 24 24 25 28 26 26

GFSSE_sfc_dewp_042.txt.gz
Dewpoint
63 67 71 72 72 72 71 71 71 70 71 71 70 70 69 68 68 67 67 65 64 61 60 60 61 61 61 62 63 63 63 63 64 65 68 67 66 66 66 68 66 64 69
65 67 71 71 71 71 71 71 70 70 70 69 69 69 68 68 67 66 65 65 63 60 60 61 62 61 61 62 62 62 63 64 65 66 67 66 67 66 66 67 67 66 68
64 67 69 70 71 71 71 71 70 70 69 68 67 67 67 67 66 66 65 64 63 60 61 61 61 61 61 61 61 61 63 64 64 65 66 63 63 65 65 67 66 66 65
64 65 67 70 70 71 71 70 70 69 68 68 67 66 66 65 64 63 65 65 63 61 61 61 61 62 62 62 61 62 63 63 63 64 61 59 59 65 65 65 64 62 63
63 65 69 69 70 71 70 70 70 69 68 67 66 65 63 62 63 63 65 64 64 61 61 61 61 62 62 63 63 63 63 62 61 59 51 53 53 60 64 65 63 62 63
67 68 68 69 69 70 70 70 69 69 68 67 65 65 62 62 63 63 65 65 63 62 62 61 61 62 63 63 62 62 61 61 61 45 50 56 56 60 60 63 65 64 64
67 67 67 68 69 69 70 69 69 68 67 66 65 65 64 63 63 63 65 64 63 62 62 62 61 61 62 62 62 61 61 61 54 46 52 56 58 61 60 60 63 64 63
66 67 67 69 69 69 69 69 68 68 67 66 65 65 64 64 64 64 65 64 64 63 62 62 61 61 61 60 59 59 60 60 51 46 51 55 61 60 60 61 63 63 63
66 66 67 67 69 68 67 67 67 67 67 66 66 65 65 65 65 65 65 64 63 63 62 60 60 60 59 57 57 57 58 59 52 46 49 53 59 58 59 59 60 61 63
66 65 66 67 66 66 64 66 66 65 65 65 64 64 63 63 64 65 64 63 62 61 60 58 58 58 58 56 55 54 56 57 45 43 49 53 56 54 56 58 59 60 60
65 65 63 63 64 63 63 64 65 66 65 64 63 63 62 58 60 61 62 62 61 60 59 58 57 56 57 57 56 53 57 48 47 45 49 57 55 54 54 56 59 59 60
62 61 60 62 62 60 56 61 61 61 60 60 60 61 61 63 61 59 60 60 61 59 58 57 55 56 56 51 51 54 49 50 47 46 52 57 53 53 53 56 56 56 56
56 58 58 61 61 56 57 58 59 60 61 63 63 63 63 63 61 61 59 57 59 59 57 55 54 52 52 52 51 50 49 47 46 45 52 56 52 51 51 52 53 53 53
54 55 58 58 61 60 57 58 60 60 62 63 64 63 64 63 61 60 59 58 57 56 54 54 53 52 51 50 49 48 47 46 44 44 50 54 51 49 49 49 50 51 51
51 54 55 58 60 60 61 62 62 62 64 64 65 64 64 63 62 60 58 57 55 53 52 51 50 48 48 45 46 45 41 40 41 42 42 52 51 47 46 46 47 47 47
50 52 55 57 61 61 63 63 63 64 65 64 63 63 63 62 61 60 55 52 51 51 50 49 47 47 43 43 40 42 40 38 36 40 37 44 51 47 45 45 44 44 44
51 52 56 59 62 62 61 60 58 58 60 60 60 61 60 60 58 54 53 52 52 50 48 46 43 42 41 38 37 38 37 32 35 38 37 34 47 49 46 42 41 41 42
53 54 57 59 61 60 59 58 58 58 58 58 58 59 57 55 54 53 51 50 49 49 45 44 43 39 39 38 36 37 37 34 34 35 34 39 40 35 46 47 43 40 41
54 58 60 61 59 58 58 58 58 58 57 57 57 53 52 51 52 51 51 47 48 45 45 42 41 41 38 37 33 33 37 36 34 30 37 38 38 36 36 43 46 45 40
57 59 60 59 60 59 59 59 58 57 56 54 51 49 50 50 51 50 48 47 45 42 42 42 42 41 41 40 33 33 37 36 34 35 38 37 34 36 34 35 38 36 43
60 60 60 60 59 59 57 55 54 53 51 51 48 50 51 50 47 45 46 44 43 42 42 41 41 40 40 40 36 34 35 35 33 33 33 33 33 32 33 35 33 32 33
59 60 60 59 59 58 55 54 54 52 50 49 49 51 51 48 45 44 44 43 43 42 42 43 42 41 39 40 36 35 31 31 33 31 33 32 33 33 32 28 31 31 31
60 60 59 59 58 58 54 56 55 52 51 50 49 50 49 47 44 43 42 42 43 43 42 42 41 41 38 38 38 36 31 29 31 32 30 31 33 32 33 31 30 30 29
59 60 60 59 57 57 57 52 51 47 46 47 48 49 46 46 45 42 41 42 43 44 43 43 39 42 40 37 38 36 36 35 31 29 29 31 32 29 30 32 30 30 29
58 59 60 58 54 54 52 52 51 50 49 49 49 49 47 48 46 43 43 43 43 43 43 43 43 41 41 40 38 37 37 37 35 32 29 29 29 29 29 29 32 31 29
58 59 57 54 52 51 51 52 51 51 48 48 47 47 46 43 41 42 43 43 42 41 39 39 39 38 38 39 40 39 38 36 34 33 32 29 27 28 29 29 28 28 29

GFSSE_sfc_dewp_045.txt.gz
Dewpoint
67 70 71 72 72 72 71 71 71 71 71 70 69 69 68 68 67 66 65 64 64 62 62 62 62 62 62 62 63 63 63 64 66 68 68 67 67 66 65 67 67 65 67
68 70 71 71 71 71 71 71 71 70 70 69 68 68 67 67 66 66 65 64 64 62 62 62 61 60 60 61 61 63 64 65 65 67 67 66 66 65 65 65 66 65 67
69 70 70 70 71 71 71 71 70 70 68 67 67 67 67 66 65 65 65 64 64 62 62 61 60 60 60 61 62 63 64 64 65 64 66 63 62 65 64 65 64 63 63
68 69 69 70 70 71 70 70 69 69 67 67 67 66 66 65 63 63 64 65 64 62 61 61 61 61 61 61 63 63 63 63 65 65 55 56 58 63 64 64 63 62 61
67 68 69 70 70 70 70 69 69 68 67 67 66 65 63 63 63 63 65 65 64 62 61 61 61 60 61 62 62 62 62 62 61 56 55 56 56 59 62 63 62 61 61
67 68 69 69 69 70 70 69 69 67 66 65 65 65 64 64 64 64 65 65 63 62 61 60 60 60 62 61 61 60 60 62 56 53 56 59 58 61 61 61 63 62 63
67 67 67 67 68 70 69 69 68 67 66 65 65 65 65 63 63 63 65 65 63 62 61 60 60 60 61 60 60 60 59 60 50 54 57 58 59 61 61 61 62 63 62
66 66 65 67 68 69 68 68 67 66 66 65 65 65 65 65 65 64 65 65 63 63 62 60 60 60 59 59 60 59 58 60 49 50 53 54 60 59 59 59 60 63 62
65 65 65 67 67 67 67 67 66 66 65 65 65 65 65 65 65 65 65 64 63 62 61 60 59 58 58 57 59 58 58 58 45 49 49 54 59 57 57 59 59 60 61
64 65 66 66 65 64 64 65 65 65 65 64 64 64 64 64 64 64 63 63 63 61 60 58 58 57 57 56 58 59 56 55 46 47 51 55 58 55 57 58 58 58 58
64 65 65 64 63 63 63 64 65 65 63 63 63 63 62 60 61 62 61 62 62 60 58 59 57 56 58 57 59 59 55 48 46 47 52 58 55 54 55 56 56 55 55
62 63 63 63 62 61 61 62 62 62 60 60 60 60 59 59 60 58 60 61 61 60 58 58 56 57 55 50 49 53 48 46 45 45 52 57 53 52 53 53 53 53 53
61 60 62 62 60 56 59 59 60 60 60 59 59 60 61 61 60 60 57 58 57 59 55 54 52 50 48 49 50 47 47 45 43 44 53 55 50 49 50 51 50 50 50
61 58 57 56 55 56 58 58 58 59 61 62 64 63 63 62 61 60 58 58 54 53 50 50 48 46 46 43 43 45 41 39 40 42 51 54 51 48 48 48 48 47 47
56 56 55 56 55 56 58 61 62 63 63 64 63 62 62 61 60 56 52 51 51 49 48 47 43 44 42 42 39 41 37 36 35 39 42 53 52 48 47 46 46 45 44
54 54 55 57 57 62 62 62 62 63 62 62 61 61 60 58 54 52 51 50 49 47 46 43 41 40 39 38 36 38 37 33 32 36 36 38 52 49 46 44 43 43 44
53 53 55 58 62 60 58 58 58 60 60 60 60 59 58 54 53 51 51 48 47 47 42 42 40 38 38 37 35 35 36 34 35 36 33 35 48 50 48 42 41 41 42
51 53 56 60 59 58 57 57 57 57 58 58 57 56 54 53 52 50 48 45 46 44 43 41 39 38 37 37 36 34 36 35 35 33 34 38 38 38 49 48 41 41 41
52 56 59 58 57 57 57 56 56 56 56 56 54 51 50 51 50 49 45 43 45 44 42 40 39 39 38 38 35 33 35 36 33 34 34 37 34 36 35 44 44 41 38
56 59 58 58 57 57 57 56 56 54 54 53 50 49 48 49 49 46 45 43 42 41 40 39 39 40 39 39 36 34 34 35 35 34 34 32 33 33 33 35 33 33 40
59 58 58 57 57 57 56 54 53 52 51 49 47 48 49 49 45 45 45 43 41 40 38 40 39 38 38 38 35 34 34 34 31 33 33 31 33 32 32 31 31 31 33
58 58 58 57 57 57 56 54 53 50 48 47 47 47 49 47 44 42 41 41 40 39 40 40 39 39 39 38 35 34 32 32 33 33 32 30 31 32 31 31 31 30 30
58 59 58 58 57 57 57 53 53 50 48 48 47 48 47 44 42 42 41 41 40 41 40 40 40 39 38 38 37 36 32 29 32 32 31 31 31 32 31 31 29 28 30
59 59 58 58 58 58 55 54 52 48 47 47 47 48 44 44 43 41 40 40 41 42 40 41 41 40 40 37 38 37 36 35 32 31 31 32 31 29 29 29 30 30 29
59 59 58 58 58 57 56 53 50 48 47 48 48 46 45 45 44 41 42 42 40 41 38 36 35 36 37 37 37 37 36 36 35 33 31 29 31 30 29 30 29 29 29
59 59 59 58 57 55 53 50 48 48 47 47 47 46 46 45 43 41 39 37 37 36 35 36 35 35 36 36 37 38 37 36 36 36 33 31 30 29 29 29 29 29 29